CST,Max TemperatureF,Mean TemperatureF,Min TemperatureF,Max Dew PointF,MeanDew PointF,Min DewpointF,Max Humidity, Mean Humidity, Min Humidity, Max Sea Level PressureIn, Mean Sea Level PressureIn, Min Sea Level PressureIn, Max VisibilityMiles, Mean VisibilityMiles, Min VisibilityMiles, Max Wind SpeedMPH, Mean Wind SpeedMPH, Max Gust SpeedMPH,PrecipitationIn, CloudCover, Events, WindDirDegrees
2012-12-1,73,62,50,54,50,45,83,66,49,30.26,30.19,30.13,10,10,10,16,10,21,0.00,3,,157
2012-12-2,73,66,58,63,59,56,97,85,73,30.26,30.19,30.15,10,10,7,17,8,20,0.00,5,,187
2012-12-3,76,67,58,61,59,57,100,82,64,30.20,30.14,30.09,10,10,9,20,11,25,0.00,2,,163
2012-12-4,75,67,58,66,61,54,100,87,73,30.22,30.15,30.08,10,9,2,28,9,33,0.53,7,Rain-Thunderstorm,181
2012-12-5,59,57,54,57,55,53,100,93,86,30.27,30.19,30.10,10,7,1,15,8,17,0.00,8,,18
2012-12-6,66,61,56,61,58,53,100,89,78,30.08,30.02,29.95,10,6,0,10,3,13,T,8,Fog,143
2012-12-7,70,63,55,61,57,54,100,84,68,29.99,29.93,29.85,10,5,0,15,5,17,0.00,5,Fog,194
2012-12-8,68,61,54,64,60,53,100,91,81,29.97,29.92,29.88,10,9,1,15,8,18,0.24,7,Rain-Thunderstorm,188
2012-12-9,73,67,61,66,63,59,100,90,79,29.95,29.87,29.78,10,9,4,32,12,39,0.27,6,Rain-Thunderstorm,193
2012-12-10,63,49,34,61,46,28,93,75,56,30.14,29.89,29.76,10,7,2,23,13,29,0.89,6,Rain,345
2012-12-11,47,38,29,32,29,26,89,71,53,30.29,30.21,30.13,10,10,10,15,8,20,0.00,0,,9
2012-12-12,52,41,30,33,29,25,92,64,36,30.40,30.34,30.29,10,10,10,12,6,14,0.00,0,,11
2012-12-13,57,42,27,36,30,24,96,65,33,30.43,30.36,30.28,10,10,10,8,2,9,0.00,0,,53
2012-12-14,61,46,30,47,39,28,92,69,46,30.32,30.22,30.07,10,10,10,12,5,15,0.01,2,Rain,136
2012-12-15,68,61,53,63,57,46,93,83,72,30.05,29.94,29.86,10,10,4,24,14,31,0.05,8,Rain,172
2012-12-16,67,64,60,63,61,59,100,94,87,29.86,29.82,29.72,10,8,2,20,9,24,1.28,8,Rain-Thunderstorm,201
2012-12-17,67,55,43,59,53,40,100,72,44,29.92,29.78,29.72,10,10,6,21,9,25,0.00,4,,231
2012-12-18,66,51,36,46,43,36,100,73,45,29.99,29.93,29.88,10,10,7,20,9,24,0.00,0,,178
2012-12-19,73,60,47,60,51,43,86,70,53,29.99,29.88,29.73,10,10,10,22,11,28,0.03,2,,164
2012-12-20,70,55,39,66,40,20,93,66,39,30.29,29.92,29.62,10,9,2,38,20,53,0.20,4,Rain,268
2012-12-21,52,41,30,30,23,17,82,54,26,30.45,30.38,30.30,10,10,10,21,7,,0.00,0,,282
2012-12-22,62,45,28,36,30,25,92,59,25,30.38,30.30,30.17,10,10,10,15,7,21,0.00,0,,191
2012-12-23,63,54,44,56,49,33,93,75,56,30.16,30.00,29.86,10,10,10,20,11,23,0.05,6,Rain,180
2012-12-24,65,57,48,59,51,41,96,82,67,29.96,29.90,29.80,10,10,7,23,7,60,T,4,Rain,306
2012-12-25,49,42,34,45,42,32,96,91,86,29.94,29.70,29.46,10,5,2,28,17,35,1.22,7,Rain-Snow-Thunderstorm,19
2012-12-26,37,33,28,32,29,25,96,83,70,30.26,30.05,29.73,10,9,4,26,13,35,T,7,Snow,311
2012-12-27,42,34,26,35,30,25,100,85,70,30.24,30.15,30.04,10,9,2,9,4,24,T,2,Rain,105
2012-12-28,42,40,38,40,38,35,100,93,85,30.05,29.92,29.78,10,6,2,25,12,32,0.38,8,Rain,20
2012-12-29,40,33,26,36,28,23,92,73,54,30.48,30.28,30.03,10,9,7,21,11,25,0.00,3,,311
2012-12-30,44,34,23,32,26,21,100,77,53,30.58,30.49,30.37,10,6,2,10,2,13,0.00,0,,114
2012-12-31,55,45,34,50,41,31,100,83,65,30.35,30.15,30.00,10,8,2,20,7,22,0.53,7,Rain,104